Flag for United Kingdom Weather past 2 weeks in West Bromwich, England, United Kingdom

Now
52 °F

Clear.


Feels Like: 51 °F
Forecast: 44 / 57 °F
Wind: 5 mph from South

Location: Birmingham / Airport

Current Time: May 24, 2015 at 5:28:00 AM

Latest Report: May 24, 2015 at 4:50 AM


Visibility: 4 mi

Pressure: 30.09 "Hg

Humidity: 94%

Dew point: 50 °F

Location of West BromwichLocation

Historic Weather in West Bromwich — Graph

°F

West Bromwich temperature yesterday

Maximum temperature yesterday: 61 °F (at 5:20 PM)
Minimum temperature yesterday: 50 °F (at 3:50 AM)
Average temperature yesterday: 55 °F

Past Weeks' High & Low Weather Summary

 TemperatureHumidityPressure
High66 °F (May 11, 2:20 PM)100% (May 18, 8:20 AM)30.33 "Hg (May 18, 8:20 AM)
Low41 °F (May 13, 5:20 AM)29% (May 12, 3:50 PM)29.50 "Hg (May 19, 2:50 AM)
Average53 °F69%30.05 "Hg
* Reported May 9 3:20 AM — May 24 3:50 AM, West Bromwich, Weather by CustomWeather, © 2015

Note: Actual official high and low records may vary slightly from our data, if they occured in-between our weather recording intervals... More about our weather records

Advertising

West Bromwich weather history for previous 24 hours

 ConditionsComfort  
Time TempWeatherWind HumidityBarometerVisibility
3:50 AM
Sun, May 24
50 °FClear.3 mph94%30.09 "Hg10 mi
3:20 AM50 °FClear.5 mph94%30.12 "Hg10 mi
2:50 AM52 °FCool.3 mph88%30.12 "HgN/A
2:20 AM52 °FCool.5 mph88%30.12 "HgN/A
1:50 AM54 °FCool.5 mph88%30.15 "HgN/A
1:20 AM55 °FClear.5 mph88%30.15 "Hg10 mi
12:50 AM55 °FPassing clouds.6 mph88%30.15 "HgN/A
12:20 AM55 °FPassing clouds.5 mph88%30.18 "HgN/A
11:50 PM
Sat, May 23
55 °FPassing clouds.7 mph88%30.18 "HgN/A
11:20 PM55 °FPassing clouds.6 mph88%30.18 "HgN/A
10:50 PM55 °FClear.6 mph88%30.18 "Hg10 mi
10:20 PM55 °FClear.5 mph88%30.18 "Hg10 mi
9:50 PM55 °FSunny.5 mph88%30.21 "Hg10 mi
9:20 PM55 °FSunny.3 mph82%30.21 "Hg10 mi
8:50 PM57 °FSunny.5 mph77%30.21 "Hg10 mi
8:20 PM59 °FSunny.5 mph72%30.21 "Hg10 mi
7:50 PM59 °FPassing clouds.6 mph72%30.21 "HgN/A
7:20 PM61 °FScattered clouds.5 mph68%30.21 "HgN/A
6:50 PM61 °FPassing clouds.6 mph68%30.21 "HgN/A
6:20 PM61 °FPartly sunny.6 mph68%30.21 "HgN/A
5:50 PM61 °FPartly sunny.5 mph68%30.21 "HgN/A
5:20 PM61 °FPartly sunny.3 mph68%30.24 "HgN/A
4:50 PM59 °FBroken clouds.5 mph72%30.24 "HgN/A
4:20 PM59 °FPartly sunny.5 mph72%30.24 "HgN/A
3:50 PM59 °FPartly sunny.3 mph72%30.24 "HgN/A
3:20 PM59 °FPartly sunny.5 mph72%30.27 "HgN/A
2:50 PM59 °FBroken clouds.6 mph72%30.27 "HgN/A
2:20 PM59 °FMore clouds than sun.3 mph72%30.27 "HgN/A
1:50 PM57 °FBroken clouds.No wind72%30.27 "Hg6 mi
1:20 PM57 °FMostly cloudy.2 mph72%30.27 "HgN/A
12:50 PM55 °FOvercast.5 mph82%30.27 "HgN/A
12:20 PM55 °FOvercast.3 mph82%30.30 "HgN/A
11:50 AM55 °FOvercast.6 mph77%30.30 "HgN/A
11:20 AM55 °FOvercast.5 mph77%30.30 "Hg6 mi
10:50 AM55 °FOvercast.6 mph77%30.30 "Hg6 mi
10:20 AM54 °FOvercast.6 mph82%30.30 "HgN/A
9:50 AM54 °FOvercast.7 mph82%30.30 "HgN/A
9:20 AM54 °FPartly sunny.6 mph77%30.30 "HgN/A
8:50 AM52 °FOvercast.6 mph82%30.27 "HgN/A
8:20 AM52 °FPartly sunny.8 mph82%30.27 "HgN/A
7:50 AM50 °FPartly sunny.8 mph82%30.27 "HgN/A
7:20 AM50 °FSunny.9 mph82%30.27 "Hg10 mi
6:50 AM50 °FSunny.10 mph82%30.27 "Hg10 mi
6:20 AM50 °FSunny.9 mph82%30.27 "Hg10 mi
5:50 AM50 °FClear.9 mph82%30.27 "Hg10 mi
5:20 AM50 °FClear.12 mph76%30.27 "Hg10 mi
Weather by CustomWeather, © 2015

See weather overviewHow to use our weather pages